Location: Unspecified
(50.7693°N, 0.0000°E)
Time: 11:13:38
(UTC+00:00)

Transit 4A - Visible Passes

Search period start: 15 October 2019 00:00
Search period end: 25 October 2019 00:00
Orbit: 866 x 978 km, 66.8° (Epoch: 14 October)

Date Brightness Start Highest point End Pass type
(mag) Time Alt. Az. Time Alt. Az. Time Alt. Az.
15 Oct 10.0 05:03:59 10° SSE 05:09:21 30° ESE 05:14:40 10° NE visible
16 Oct 9.4 05:12:37 10° S 05:18:30 41° ESE 05:24:17 10° NE visible
17 Oct 10.9 03:40:50 10° ESE 03:42:36 11° E 03:44:20 10° E visible
17 Oct 8.7 05:21:32 10° SSW 05:27:43 56° ESE 05:33:47 10° NE visible
18 Oct 10.6 03:47:42 10° SE 03:51:32 17° ESE 03:55:21 10° ENE visible
18 Oct 8.2 05:30:39 10° SSW 05:36:59 76° ESE 05:43:13 10° NE visible
19 Oct 10.1 03:55:40 10° SSE 04:00:34 24° ESE 04:05:25 10° ENE visible
19 Oct 8.0 05:39:58 10° SW 05:46:21 82° NW 05:52:35 10° NE visible
20 Oct 9.5 04:04:05 10° S 04:09:40 33° ESE 04:15:09 10° NE visible
20 Oct 8.0 05:49:29 10° SW 05:55:46 63° NW 06:01:55 10° NE visible
21 Oct 8.9 04:12:51 10° S 04:18:50 46° ESE 04:24:44 10° NE visible
22 Oct 10.5 02:40:06 10° SE 02:42:50 13° E 02:45:33 10° ENE visible
22 Oct 8.3 04:22:10 12° SSW 04:28:04 63° ESE 04:34:12 10° NE visible
23 Oct 10.1 02:48:53 14° SE 02:51:48 19° ESE 02:56:02 10° ENE visible
23 Oct 8.0 04:32:28 18° SSW 04:37:23 84° SE 04:43:36 10° NE visible
24 Oct 9.6 02:58:59 23° SE 03:00:52 27° ESE 03:05:58 10° NE visible
24 Oct 7.9 04:42:33 22° SW 04:46:45 74° NW 04:52:58 10° NE visible
